User: anonymous   Login
Location: Unspecified
(0.0000°N, 0.0000°E)
Time: 07:58:18
(UTC+01:00)
Language:

Iridium 15 - Orbit

View from above orbital plane
View from above orbital plane
View from above satellite
View from above satellite

Ground track
Ground track

The orbit data is extracted from the following two-line orbital elements,

1 24869U 97034A   14297.96368062  .00000609  00000-0  21036-3 0  1267
2 24869 086.3972 065.6991 0002137 110.9402 027.7376 14.34217162905425
Epoch (UTC): 24 October 2014 23:07:42
Eccentricity: 0.0002137
inclination: 86.3972°
perigee height: 776 km
apogee height: 779 km
right ascension of ascending node: 65.6991°
argument of perigee: 110.9402°
revolutions per day: 14.34217162
mean anomaly at epoch: 27.7376°
orbit number at epoch: 90542

The dashed part of the orbit path shows where the satellite is in the earth's shadow,  

DLR